Location: Broletto
(44.6000°N, 10.5833°E)
Time: 06:22:07
(UTC+00:00)

Cosmos 1825 - Pass Details

Date: 18 April 2021
Orbit: 502 x 506 km, 82.5° (Epoch: 06 May)

Event Time Altitude Azimuth Distance (km) Brightness Sun altitude
Rises 20:03:46 0° 342° (NNW) 2,615 6.7 -19.2°
Reaches altitude 10° 20:06:03 10° 332° (NNW) 1,725 5.9 -19.5°
Maximum altitude 20:09:25 32° 269° (W) 894 3.8 -20.0°
Enters shadow 20:12:03 15° 211° (SSW) 1,453 4.4 -20.4°
